Location: Chandrammap?lem
(16.9200°N, 81.0051°E)
Time: 10:03:46
(UTC+00:00)

Cosmos 921 Rocket - Pass Details

Date: 29 May 2024
Orbit: 568 x 626 km, 75.8° (Epoch: 14 June)

Event Time Altitude Azimuth Distance (km) Brightness Sun altitude
Rises 13:27:22 0° 189° (S) 2,873 6.3 -5.7°
Reaches altitude 10° 13:29:36 10° 189° (S) 1,976 5.5 -6.2°
Maximum altitude 13:34:01 83° 100° (E) 630 3.0 -7.1°
Drops below altitude 10° 13:38:29 10° 13° (NNE) 1,994 5.8 -8.1°
Sets 13:40:44 0° 13° (NNE) 2,901 6.7 -8.6°
